LINK (42714 NORAD) Tracking and Keplerian Element Data

This shows tracking and keplerian element data for the satellite.

Feedback or suggestion? Click here.




ElementValue
Catalog42714
NameLINK
Epoch Orbit6658
Epoch Day198.44847528
Epoch Year2018
RAAN190.3012
Inclination51.6223
Eccentricity0.000332
Argument of Perigee22.7178
Mean Anonmoly337.3972
Mean Motion15.84655724
Decay Rate0.00097385
L11 42714U 98067LV 18198.44847528 .00097385 00000-0 41069-3 0 9992
L22 42714 51.6223 190.3012 0003320 22.7178 337.3972 15.84655724 66586

Live tracking and technical data element details for LINK (NORAD 42714). LINK can be tracked NOW for your location showing map with azimuth and elevation plus other details from your city location.

Track the satellite on the map from your city or location and see movement details for azimuth, elevation, latitude, longitude, range, height, and movement on the map or in text.







IsCatalogInMostPopularTable: catalog: 42714, numindb: 107
Update: records affected: 1



GetName: 42714 LINK

Hit Count: updated at: Fri, 20 Jul 2018 20:37:05 GMT